This is the latest recevied weather packets stored in our database for station/object IU2DXM. If no packets are shown the sender has not sent any weather packets the latest 10 day(s).
| Time | Temp. | Humidity | Pressure | Rain* | Wind** | Luminosity | Snow |
|---|---|---|---|---|---|---|---|
| 1777492237 | 17.78° C | - | - | 0 mm | - | 0 W/m² | - |
| 1777485016 | 20° C | - | - | 0 mm | - | 30 W/m² | - |
| 1777481416 | 20.56° C | - | - | 0 mm | - | 126 W/m² | - |
| 1777477216 | 23.33° C | - | - | 0 mm | - | 213 W/m² | - |
| 1777471218 | 24.44° C | - | - | 0 mm | - | 695 W/m² | - |
| 1777470018 | 24.44° C | - | - | 0 mm | - | 722 W/m² | - |
| 1777467618 | 24.44° C | - | - | 0 mm | - | 795 W/m² | - |
| 1777466418 | 24.44° C | - | - | 0 mm | - | 837 W/m² | - |
| 1777464618 | 23.89° C | - | - | 0 mm | - | 934 W/m² | - |
| 1777462217 | 23.33° C | - | - | 0 mm | - | 926 W/m² | - |
| 1777458017 | 22.22° C | - | - | 0 mm | - | 651 W/m² | - |
| 1777455617 | 21.11° C | - | - | 0 mm | - | 718 W/m² | - |
| 1777453817 | 21.11° C | - | - | 0 mm | - | 720 W/m² | - |
| 1777452617 | 21.11° C | - | - | 0 mm | - | 644 W/m² | - |
| 1777452017 | 20.56° C | - | - | 0 mm | - | 617 W/m² | - |
| 1777450817 | 20° C | - | - | 0 mm | - | 438 W/m² | - |
| 1777446017 | 17.78° C | - | - | 0 mm | - | 357 W/m² | - |
| 1777438216 | 15° C | - | - | 0 mm | - | 12 W/m² | - |
| 1777436417 | 15° C | - | - | 0 mm | - | 0 W/m² | - |
| 1777425617 | 16.67° C | - | - | 0 mm | - | 0 W/m² | - |
| 1777423818 | 17.22° C | - | - | 0 mm | - | 0 W/m² | - |
| 1777422638 | 17.22° C | - | - | 0 mm | - | 0 W/m² | - |
| 1777416018 | 17.78° C | - | - | 0 mm | - | 0 W/m² | - |
| 1777414218 | 18.89° C | - | - | 0 mm | - | 0 W/m² | - |
| 1777403417 | 22.22° C | - | - | 0 mm | - | 0 W/m² | - |
* Rain latest hour (hover to see other rain measurements)
** Current wind speed in m/s (hover to see current wind gust speed)